EZY95AM EGJJ-EGGP

Flight info

Callsign EZY95AM
Flight time 0h 46m
Altitude 31000
Route SKERY L22 EMWIP P16 TOJAQ DCT EPACE DCT ACCOP DCT MOCQO P16 PEPZE
Aircraft A320/M-SDE2E3FGHIJ1RWXYZ/LB1

Departure

Time 2026-05-03 21:22
Airport Jersey Airport (EGJJ)

Arrival

Time 2026-05-03 22:08
Airport Liverpool John Lennon Airport (EGGP)
Time Latitude Longitude Altitude Speed Heading
2026-05-03 21:10 49.20551 -2.19806 284 ft 0 kts 173°
2026-05-03 21:16 49.20560 -2.19808 284 ft 4 kts 170°
2026-05-03 21:16 49.20586 -2.19819 290 ft 4 kts 149°
2026-05-03 21:16 49.20604 -2.19845 290 ft 4 kts 104°
2026-05-03 21:17 49.20605 -2.19865 292 ft 1 kts 83°
2026-05-03 21:17 49.20605 -2.19867 292 ft 1 kts 83°
2026-05-03 21:19 49.20606 -2.19849 292 ft 2 kts 83°
2026-05-03 21:19 49.20610 -2.19795 287 ft 8 kts 83°
2026-05-03 21:19 49.20617 -2.19715 284 ft 7 kts 78°
2026-05-03 21:19 49.20696 -2.19576 284 ft 33 kts 70°
2026-05-03 21:20 49.20686 -2.19236 284 ft 32 kts 102°
2026-05-03 21:20 49.20699 -2.18896 284 ft 32 kts 85°
2026-05-03 21:20 49.20724 -2.18570 284 ft 26 kts 82°
2026-05-03 21:20 49.20824 -2.18380 284 ft 22 kts
2026-05-03 21:21 49.20889 -2.18469 281 ft 5 kts 263°
2026-05-03 21:21 49.20886 -2.18506 281 ft 2 kts 264°
2026-05-03 21:21 49.20857 -2.18852 283 ft 74 kts 261°
2026-05-03 21:21 49.20760 -2.19991 295 ft 139 kts 260°
2026-05-03 21:22 49.20657 -2.21364 754 ft 149 kts 261°
2026-05-03 21:22 49.20518 -2.23071 1525 ft 149 kts 261°
2026-05-03 21:22 49.20390 -2.24629 2092 ft 153 kts 260°
2026-05-03 21:22 49.20240 -2.26367 2341 ft 176 kts 261°
2026-05-03 21:23 49.20068 -2.28344 2599 ft 200 kts 260°
2026-05-03 21:23 49.19875 -2.30586 2959 ft 225 kts 261°
2026-05-03 21:23 49.19762 -2.33093 3381 ft 249 kts 275°
2026-05-03 21:23 49.20164 -2.35741 4123 ft 259 kts 282°
2026-05-03 21:24 49.20621 -2.38428 4988 ft 264 kts 282°
2026-05-03 21:24 49.21347 -2.41037 5833 ft 272 kts 301°
2026-05-03 21:24 49.22603 -2.43251 6647 ft 280 kts 316°
2026-05-03 21:24 49.24201 -2.45010 7458 ft 286 kts 328°
2026-05-03 21:25 49.25992 -2.46385 8269 ft 290 kts 332°
2026-05-03 21:25 49.27805 -2.47781 9105 ft 294 kts 330°
2026-05-03 21:25 49.29636 -2.49223 9899 ft 298 kts 330°
2026-05-03 21:25 49.31513 -2.50713 10376 ft 314 kts 330°
2026-05-03 21:26 49.33517 -2.52315 10646 ft 335 kts 330°
2026-05-03 21:26 49.35610 -2.53987 11234 ft 343 kts 330°
2026-05-03 21:26 49.37743 -2.55679 11945 ft 347 kts 330°
2026-05-03 21:26 49.39902 -2.57384 12667 ft 351 kts 330°
2026-05-03 21:27 49.42088 -2.59107 13378 ft 355 kts 330°
2026-05-03 21:27 49.44267 -2.60930 14028 ft 357 kts 325°
2026-05-03 21:27 49.46365 -2.63013 14647 ft 361 kts 324°
2026-05-03 21:27 49.48480 -2.65125 15264 ft 364 kts 324°
2026-05-03 21:28 49.50607 -2.67256 15860 ft 368 kts 324°
2026-05-03 21:28 49.52772 -2.69428 16456 ft 373 kts 324°
2026-05-03 21:28 49.54949 -2.71616 17021 ft 377 kts 323°
2026-05-03 21:28 49.57127 -2.73805 17605 ft 381 kts 323°
2026-05-03 21:29 49.59357 -2.76046 18196 ft 385 kts 323°
2026-05-03 21:29 49.61618 -2.78320 18709 ft 388 kts 323°
2026-05-03 21:29 49.63918 -2.80638 19222 ft 392 kts 323°
2026-05-03 21:29 49.66210 -2.82948 19733 ft 395 kts 323°
2026-05-03 21:30 49.68521 -2.85279 20236 ft 398 kts 323°
2026-05-03 21:30 49.70849 -2.87628 20720 ft 402 kts 323°
2026-05-03 21:30 49.73198 -2.89998 21227 ft 404 kts 323°
2026-05-03 21:30 49.75558 -2.92388 21708 ft 407 kts 323°
2026-05-03 21:31 49.77935 -2.94793 22178 ft 410 kts 323°
2026-05-03 21:31 49.80332 -2.97223 22636 ft 413 kts 323°
2026-05-03 21:31 49.82745 -2.99678 23094 ft 417 kts 323°
2026-05-03 21:31 49.85178 -3.02157 23525 ft 420 kts 323°
2026-05-03 21:32 49.87626 -3.04652 23912 ft 423 kts 323°
2026-05-03 21:32 49.90090 -3.07165 24303 ft 425 kts 323°
2026-05-03 21:32 49.92564 -3.09690 24672 ft 427 kts 323°
2026-05-03 21:32 49.95051 -3.12233 25062 ft 429 kts 323°
2026-05-03 21:33 49.97531 -3.14833 25433 ft 430 kts 319°
2026-05-03 21:33 49.99749 -3.17915 25798 ft 427 kts 308°
2026-05-03 21:33 50.01582 -3.21521 26157 ft 424 kts 298°
2026-05-03 21:33 50.03099 -3.25456 26489 ft 426 kts 297°
2026-05-03 21:34 50.04857 -3.29208 26823 ft 433 kts 307°
2026-05-03 21:34 50.07039 -3.32494 27177 ft 441 kts 317°
2026-05-03 21:34 50.09593 -3.35183 27526 ft 448 kts 328°
2026-05-03 21:34 50.12526 -3.37542 27877 ft 451 kts 329°
2026-05-03 21:35 50.15172 -3.39658 28209 ft 453 kts 329°
2026-05-03 21:35 50.17981 -3.41909 28565 ft 454 kts 329°
2026-05-03 21:35 50.20798 -3.44171 28906 ft 456 kts 329°
2026-05-03 21:35 50.23624 -3.46449 29220 ft 458 kts 329°
2026-05-03 21:36 50.26464 -3.48750 29564 ft 460 kts 329°
2026-05-03 21:36 50.29311 -3.51063 29874 ft 462 kts 329°
2026-05-03 21:36 50.32173 -3.53394 30149 ft 464 kts 329°
2026-05-03 21:36 50.35042 -3.55731 30398 ft 466 kts 329°
2026-05-03 21:37 50.37924 -3.58080 30654 ft 468 kts 329°
2026-05-03 21:37 50.40813 -3.60434 30863 ft 468 kts 329°
2026-05-03 21:37 50.46579 -3.64504 30922 ft 449 kts 341°
2026-05-03 21:38 50.52747 -3.65664 30915 ft 449 kts
2026-05-03 21:38 50.58968 -3.64554 30915 ft 450 kts
2026-05-03 21:39 50.65176 -3.63355 30917 ft 449 kts
2026-05-03 21:39 50.71382 -3.62163 30915 ft 449 kts
2026-05-03 21:40 50.77578 -3.60978 30913 ft 448 kts
2026-05-03 21:40 50.83770 -3.59796 30910 ft 448 kts
2026-05-03 21:41 50.89959 -3.58599 30917 ft 448 kts
2026-05-03 21:41 50.96136 -3.57402 30918 ft 447 kts
2026-05-03 21:42 51.02312 -3.56212 30913 ft 447 kts
2026-05-03 21:42 51.08488 -3.55014 30908 ft 447 kts
2026-05-03 21:43 51.14660 -3.53806 30905 ft 447 kts
2026-05-03 21:43 51.20829 -3.52599 30906 ft 446 kts
2026-05-03 21:44 51.26991 -3.51390 30905 ft 446 kts
2026-05-03 21:44 51.33152 -3.50175 30925 ft 446 kts
2026-05-03 21:45 51.39299 -3.48959 30921 ft 445 kts
2026-05-03 21:45 51.45439 -3.47749 30917 ft 444 kts
2026-05-03 21:46 51.51530 -3.46556 30917 ft 444 kts
2026-05-03 21:46 51.57655 -3.45336 30918 ft 443 kts
2026-05-03 21:47 51.63767 -3.44118 30916 ft 442 kts
2026-05-03 21:47 51.69874 -3.42890 30903 ft 442 kts
2026-05-03 21:48 51.75982 -3.41660 30895 ft 442 kts
2026-05-03 21:48 51.82079 -3.40434 30904 ft 441 kts
2026-05-03 21:49 51.88226 -3.39205 30902 ft 454 kts
2026-05-03 21:49 51.94619 -3.37981 30902 ft 468 kts
2026-05-03 21:50 52.01134 -3.37374 30904 ft 469 kts
2026-05-03 21:50 52.07648 -3.37111 30902 ft 468 kts
2026-05-03 21:51 52.14150 -3.36774 30902 ft 465 kts
2026-05-03 21:51 52.17333 -3.36554 30546 ft 451 kts
2026-05-03 21:51 52.20440 -3.36315 29733 ft 443 kts
2026-05-03 21:52 52.23488 -3.36073 28798 ft 435 kts
2026-05-03 21:52 52.26490 -3.35835 27928 ft 427 kts
2026-05-03 21:52 52.29433 -3.35607 27062 ft 420 kts
2026-05-03 21:52 52.32330 -3.35391 26203 ft 413 kts
2026-05-03 21:53 52.35180 -3.35184 25359 ft 407 kts
2026-05-03 21:53 52.37989 -3.34979 24556 ft 401 kts
2026-05-03 21:53 52.40760 -3.34774 23752 ft 396 kts
2026-05-03 21:53 52.43493 -3.34575 22888 ft 390 kts
2026-05-03 21:54 52.46187 -3.34380 22030 ft 385 kts
2026-05-03 21:54 52.48849 -3.34185 21216 ft 380 kts
2026-05-03 21:54 52.50587 -3.34058 20695 ft 376 kts
2026-05-03 21:54 52.54056 -3.33803 19659 ft 370 kts
2026-05-03 21:55 52.55752 -3.33677 19185 ft 367 kts
2026-05-03 21:55 52.58267 -3.33488 18684 ft 356 kts
2026-05-03 21:55 52.60692 -3.33306 18283 ft 343 kts
2026-05-03 21:55 52.63019 -3.32900 17865 ft 331 kts 12°
2026-05-03 21:56 52.65216 -3.31807 17378 ft 331 kts 20°
2026-05-03 21:56 52.67380 -3.30510 16886 ft 331 kts 20°
2026-05-03 21:56 52.69538 -3.29223 16417 ft 329 kts 20°
2026-05-03 21:56 52.71689 -3.27942 15954 ft 330 kts 20°
2026-05-03 21:57 52.73855 -3.26649 15466 ft 332 kts 20°
2026-05-03 21:57 52.76038 -3.25342 15009 ft 334 kts 20°
2026-05-03 21:57 52.78189 -3.24050 14784 ft 328 kts 20°
2026-05-03 21:57 52.80376 -3.22737 14080 ft 338 kts 19°
2026-05-03 21:58 52.82596 -3.21407 13650 ft 339 kts 19°
2026-05-03 21:58 52.84799 -3.20084 13275 ft 335 kts 19°
2026-05-03 21:58 52.86988 -3.18768 12858 ft 334 kts 19°
2026-05-03 21:58 52.89195 -3.17600 12444 ft 329 kts 11°
2026-05-03 21:59 52.91445 -3.17197 11728 ft 324 kts
2026-05-03 21:59 52.93669 -3.17031 11246 ft 313 kts
2026-05-03 21:59 52.95793 -3.16876 10851 ft 300 kts
2026-05-03 21:59 52.97862 -3.16726 10309 ft 295 kts
2026-05-03 22:00 52.99895 -3.16577 9832 ft 290 kts
2026-05-03 22:00 53.01917 -3.16426 9384 ft 292 kts
2026-05-03 22:00 53.03932 -3.16270 8999 ft 289 kts
2026-05-03 22:00 53.05930 -3.16083 8645 ft 286 kts
2026-05-03 22:01 53.07915 -3.16017 8229 ft 285 kts 359°
2026-05-03 22:01 53.09905 -3.15998 7773 ft 286 kts 358°
2026-05-03 22:01 53.11894 -3.15980 7321 ft 286 kts 359°
2026-05-03 22:01 53.13879 -3.15970 6867 ft 286 kts 359°
2026-05-03 22:02 53.15865 -3.15976 6435 ft 285 kts 359°
2026-05-03 22:02 53.17853 -3.15991 5974 ft 285 kts 359°
2026-05-03 22:02 53.19802 -3.16013 5497 ft 274 kts 359°
2026-05-03 22:02 53.21661 -3.16049 5042 ft 263 kts 359°
2026-05-03 22:03 53.23459 -3.16113 4576 ft 253 kts 359°
2026-05-03 22:03 53.25186 -3.16190 4108 ft 244 kts 359°
2026-05-03 22:03 53.26862 -3.16269 3648 ft 237 kts 359°
2026-05-03 22:03 53.28462 -3.16349 3437 ft 224 kts 359°
2026-05-03 22:04 53.29984 -3.16133 3174 ft 218 kts 21°
2026-05-03 22:04 53.31232 -3.14774 2914 ft 216 kts 47°
2026-05-03 22:04 53.31974 -3.12652 2685 ft 210 kts 73°
2026-05-03 22:04 53.32165 -3.10276 2601 ft 202 kts 84°
2026-05-03 22:05 53.32276 -3.07966 2545 ft 197 kts 83°
2026-05-03 22:05 53.32383 -3.05731 2364 ft 186 kts 83°
2026-05-03 22:05 53.32483 -3.03652 2120 ft 174 kts 82°
2026-05-03 22:05 53.32577 -3.01688 1889 ft 165 kts 82°
2026-05-03 22:06 53.32666 -2.99817 1683 ft 155 kts 82°
2026-05-03 22:06 53.32749 -2.98061 1483 ft 147 kts 82°
2026-05-03 22:06 53.32827 -2.96409 1267 ft 140 kts 82°
2026-05-03 22:06 53.32905 -2.94787 1076 ft 139 kts 81°
2026-05-03 22:07 53.32981 -2.93171 886 ft 140 kts 82°
2026-05-03 22:07 53.33057 -2.91546 695 ft 141 kts 81°
2026-05-03 22:07 53.33134 -2.89908 506 ft 141 kts 80°
2026-05-03 22:07 53.33211 -2.88267 313 ft 143 kts 80°
2026-05-03 22:08 53.33287 -2.86621 124 ft 142 kts 81°
2026-05-03 22:08 53.33359 -2.85143 91 ft 109 kts 84°
2026-05-03 22:08 53.33487 -2.84219 91 ft 55 kts 60°
2026-05-03 22:08 53.33572 -2.84023 89 ft 1 kts 334°
2026-05-03 22:09 53.33564 -2.84231 89 ft 29 kts 266°
2026-05-03 22:09 53.33550 -2.84554 89 ft 26 kts 266°
2026-05-03 22:09 53.33540 -2.84844 89 ft 21 kts 265°
2026-05-03 22:10 53.33598 -2.85043 93 ft 8 kts 59°
2026-05-03 22:10 53.33597 -2.84968 91 ft 6 kts 87°
2026-05-03 22:10 53.33598 -2.84946 89 ft 0 kts 85°